SIA482 WSSS-FAOR

Flight info

Callsign SIA482
Flight time N/A
Altitude 36000
Route TAROS1A TAROS R469 PKU N633 PIBED R212 GUDUG/N0491F380 UR212 NKW R348 GEPUG/N0488F400 R348 RUPIG UR348 TNV UB536 EROPA/N0490F280 UB536 ETIVI DCT IMKAN UT446 IBGUB
Aircraft A359/H-SDE2E3GHIJ3J4J5LM1ORWXY/LB1D1

Departure

Time N/A
Airport Singapore Changi Airport (WSSS)

Arrival

Time 2026-05-06 18:03
Airport O.R. Tambo International Airport (FAOR)
Time Latitude Longitude Altitude Speed Heading
2026-05-06 16:07 -21.68640 41.62467 39979 ft 465 kts 244°
2026-05-06 16:07 -21.70205 41.59377 39979 ft 465 kts 244°
2026-05-06 16:07 -21.73277 41.53308 39980 ft 465 kts 244°
2026-05-06 16:08 -21.76361 41.47206 39979 ft 465 kts 244°
2026-05-06 16:08 -21.79450 41.41088 39980 ft 465 kts 244°
2026-05-06 16:09 -21.82534 41.34973 39986 ft 465 kts 245°
2026-05-06 16:09 -21.85613 41.28863 39982 ft 464 kts 245°
2026-05-06 16:10 -21.88686 41.22757 39981 ft 464 kts 245°
2026-05-06 16:10 -21.91754 41.16651 39979 ft 464 kts 245°
2026-05-06 16:11 -21.94822 41.10539 39980 ft 463 kts 245°
2026-05-06 16:11 -21.97882 41.04437 39979 ft 463 kts 245°
2026-05-06 16:12 -22.00940 40.98330 39977 ft 463 kts 245°
2026-05-06 16:12 -22.03995 40.92225 39977 ft 463 kts 245°
2026-05-06 16:13 -22.07047 40.86116 39977 ft 462 kts 245°
2026-05-06 16:13 -22.10091 40.80017 39977 ft 462 kts 245°
2026-05-06 16:14 -22.13134 40.73913 39977 ft 462 kts 245°
2026-05-06 16:14 -22.16175 40.67804 39977 ft 462 kts 245°
2026-05-06 16:15 -22.19213 40.61697 39979 ft 462 kts 245°
2026-05-06 16:15 -22.22244 40.55591 39979 ft 462 kts 245°
2026-05-06 16:16 -22.25273 40.49480 39977 ft 462 kts 245°
2026-05-06 16:16 -22.28302 40.43365 39974 ft 462 kts 245°
2026-05-06 16:17 -22.31326 40.37252 39974 ft 461 kts 245°
2026-05-06 16:17 -22.34345 40.31140 39974 ft 461 kts 245°
2026-05-06 16:18 -22.37345 40.25061 39980 ft 461 kts 246°
2026-05-06 16:18 -22.40380 40.18905 39963 ft 461 kts 246°
2026-05-06 16:19 -22.43371 40.12829 39973 ft 461 kts 246°
2026-05-06 16:19 -22.46380 40.06711 39968 ft 461 kts 246°
2026-05-06 16:20 -22.49387 40.00588 39976 ft 461 kts 246°
2026-05-06 16:20 -22.52397 39.94463 39970 ft 461 kts 246°
2026-05-06 16:21 -22.55398 39.88336 39969 ft 461 kts 246°
2026-05-06 16:21 -22.58396 39.82208 39968 ft 461 kts 246°
2026-05-06 16:22 -22.61393 39.76078 39970 ft 461 kts 246°
2026-05-06 16:22 -22.64386 39.69949 39968 ft 460 kts 246°
2026-05-06 16:23 -22.67376 39.63818 39966 ft 460 kts 246°
2026-05-06 16:23 -22.70365 39.57684 39970 ft 460 kts 246°
2026-05-06 16:24 -22.73347 39.51556 39966 ft 459 kts 246°
2026-05-06 16:24 -22.76323 39.45432 39964 ft 459 kts 246°
2026-05-06 16:25 -22.79295 39.39309 39963 ft 459 kts 246°
2026-05-06 16:25 -22.82264 39.33185 39965 ft 459 kts 247°
2026-05-06 16:26 -22.85228 39.27064 39959 ft 458 kts 247°
2026-05-06 16:26 -22.88188 39.20944 39958 ft 458 kts 247°
2026-05-06 16:27 -22.91144 39.14822 39957 ft 458 kts 247°
2026-05-06 16:27 -22.94081 39.08736 39959 ft 458 kts 247°
2026-05-06 16:28 -22.97034 39.02607 39956 ft 458 kts 247°
2026-05-06 16:28 -22.99984 38.96477 39954 ft 458 kts 247°
2026-05-06 16:29 -23.02929 38.90350 39952 ft 458 kts 247°
2026-05-06 16:29 -23.05875 38.84213 39950 ft 458 kts 247°
2026-05-06 16:30 -23.08318 38.79119 39946 ft 457 kts 248°
2026-05-06 16:30 -23.11745 38.71964 39946 ft 456 kts 248°
2026-05-06 16:31 -23.14669 38.65849 39944 ft 456 kts 248°
2026-05-06 16:31 -23.17593 38.59729 39947 ft 456 kts 248°
2026-05-06 16:32 -23.20513 38.53608 39942 ft 456 kts 248°
2026-05-06 16:32 -23.23431 38.47482 39948 ft 456 kts 248°
2026-05-06 16:33 -23.26345 38.41360 39941 ft 456 kts 248°
2026-05-06 16:34 -23.30719 38.32155 39937 ft 456 kts 248°
2026-05-06 16:34 -23.33627 38.26023 39938 ft 456 kts 248°
2026-05-06 16:35 -23.36534 38.19889 39942 ft 456 kts 248°
2026-05-06 16:35 -23.39436 38.13758 39935 ft 456 kts 248°
2026-05-06 16:36 -23.41850 38.08648 39931 ft 456 kts 248°
2026-05-06 16:36 -23.44747 38.02512 39931 ft 456 kts 248°
2026-05-06 16:37 -23.48133 37.95330 39941 ft 456 kts 248°
2026-05-06 16:37 -23.50541 37.90216 39934 ft 456 kts 249°
2026-05-06 16:38 -23.53434 37.84066 39930 ft 456 kts 249°
2026-05-06 16:38 -23.56326 37.77908 39931 ft 456 kts 249°
2026-05-06 16:39 -23.59213 37.71754 39930 ft 456 kts 249°
2026-05-06 16:39 -23.62099 37.65595 39928 ft 456 kts 249°
2026-05-06 16:40 -23.64979 37.59440 39926 ft 456 kts 249°
2026-05-06 16:40 -23.67858 37.53279 39925 ft 456 kts 249°
2026-05-06 16:41 -23.70735 37.47113 39933 ft 456 kts 249°
2026-05-06 16:41 -23.73612 37.40945 39925 ft 456 kts 249°
2026-05-06 16:42 -23.76486 37.34775 39919 ft 456 kts 250°
2026-05-06 16:42 -23.79360 37.28595 39925 ft 456 kts 249°
2026-05-06 16:43 -23.82225 37.22423 39932 ft 456 kts 250°
2026-05-06 16:43 -23.85089 37.16242 39917 ft 456 kts 250°
2026-05-06 16:44 -23.87951 37.10060 39919 ft 456 kts 250°
2026-05-06 16:44 -23.90810 37.03876 39916 ft 456 kts 250°
2026-05-06 16:45 -23.93670 36.97685 39906 ft 456 kts 250°
2026-05-06 16:45 -23.96504 36.91542 39920 ft 456 kts 250°
2026-05-06 16:46 -23.99359 36.85345 39921 ft 456 kts 250°
2026-05-06 16:46 -24.02208 36.79150 39920 ft 456 kts 250°
2026-05-06 16:47 -24.05055 36.72955 39906 ft 456 kts 250°
2026-05-06 16:47 -24.07907 36.66763 39903 ft 456 kts 250°
2026-05-06 16:48 -24.10764 36.60567 39900 ft 456 kts 250°
2026-05-06 16:48 -24.13614 36.54374 39895 ft 456 kts 250°
2026-05-06 16:49 -24.16459 36.48182 39904 ft 455 kts 251°
2026-05-06 16:49 -24.19300 36.41989 39890 ft 455 kts 251°
2026-05-06 16:50 -24.22138 36.35793 39893 ft 455 kts 251°
2026-05-06 16:50 -24.24972 36.29598 39889 ft 455 kts 251°
2026-05-06 16:51 -24.27806 36.23396 39897 ft 455 kts 251°
2026-05-06 16:51 -24.30632 36.17205 39889 ft 454 kts 251°
2026-05-06 16:52 -24.33457 36.11004 39891 ft 454 kts 251°
2026-05-06 16:52 -24.36275 36.04813 39885 ft 454 kts 251°
2026-05-06 16:53 -24.39089 35.98622 39881 ft 453 kts 251°
2026-05-06 16:53 -24.41896 35.92437 39882 ft 453 kts 251°
2026-05-06 16:54 -24.44697 35.86254 39881 ft 453 kts 251°
2026-05-06 16:54 -24.47497 35.80069 39878 ft 453 kts 251°
2026-05-06 16:55 -24.50295 35.73879 39883 ft 453 kts 251°
2026-05-06 16:55 -24.53089 35.67690 39873 ft 452 kts 251°
2026-05-06 16:56 -24.55861 35.61541 39870 ft 452 kts 251°
2026-05-06 16:56 -24.58649 35.55349 39870 ft 452 kts 251°
2026-05-06 16:57 -24.61433 35.49155 39874 ft 452 kts 251°
2026-05-06 16:57 -24.64220 35.42949 39854 ft 453 kts 251°
2026-05-06 16:58 -24.67002 35.36742 39854 ft 453 kts 251°
2026-05-06 16:58 -24.69781 35.30537 39853 ft 453 kts 251°
2026-05-06 16:59 -24.72563 35.24317 39865 ft 453 kts 251°
2026-05-06 16:59 -24.75339 35.18099 39848 ft 453 kts 251°
2026-05-06 17:00 -24.78119 35.11865 39846 ft 453 kts 251°
2026-05-06 17:00 -24.80894 35.05634 39848 ft 453 kts 251°
2026-05-06 17:01 -24.83663 34.99408 39853 ft 453 kts 251°
2026-05-06 17:01 -24.86430 34.93179 39845 ft 452 kts 251°
2026-05-06 17:02 -24.89191 34.86953 39845 ft 452 kts 251°
2026-05-06 17:02 -24.91947 34.80729 39849 ft 452 kts 251°
2026-05-06 17:03 -24.94685 34.74538 39848 ft 452 kts 251°
2026-05-06 17:03 -24.97437 34.68306 39851 ft 453 kts 251°
2026-05-06 17:04 -25.00184 34.62077 39875 ft 453 kts 251°
2026-05-06 17:04 -25.02518 34.55650 39852 ft 442 kts 262°
2026-05-06 17:05 -25.03567 34.49090 39849 ft 436 kts 268°
2026-05-06 17:05 -25.04330 34.42464 39843 ft 436 kts 269°
2026-05-06 17:06 -25.05051 34.35817 39845 ft 437 kts 269°
2026-05-06 17:06 -25.05785 34.29169 39855 ft 437 kts 269°
2026-05-06 17:07 -25.06531 34.22515 39854 ft 437 kts 269°
2026-05-06 17:07 -25.07276 34.15865 39846 ft 437 kts 269°
2026-05-06 17:08 -25.08019 34.09204 39843 ft 437 kts 269°
2026-05-06 17:08 -25.08759 34.02546 39850 ft 437 kts 269°
2026-05-06 17:09 -25.09496 33.95878 39846 ft 437 kts 269°
2026-05-06 17:09 -25.10227 33.89233 39839 ft 436 kts 269°
2026-05-06 17:10 -25.10956 33.82592 39841 ft 435 kts 269°
2026-05-06 17:10 -25.11679 33.75964 39838 ft 435 kts 269°
2026-05-06 17:11 -25.12399 33.69334 39839 ft 435 kts 269°
2026-05-06 17:11 -25.13117 33.62707 39835 ft 434 kts 269°
2026-05-06 17:12 -25.13829 33.56101 39839 ft 433 kts 269°
2026-05-06 17:12 -25.14533 33.49535 39834 ft 433 kts 269°
2026-05-06 17:13 -25.15239 33.42927 39833 ft 433 kts 269°
2026-05-06 17:13 -25.15941 33.36326 39832 ft 433 kts 269°
2026-05-06 17:14 -25.16641 33.29721 39827 ft 433 kts 269°
2026-05-06 17:14 -25.17339 33.23105 39826 ft 433 kts 269°
2026-05-06 17:15 -25.18033 33.16499 39823 ft 433 kts 269°
2026-05-06 17:15 -25.18724 33.09899 39815 ft 432 kts 269°
2026-05-06 17:16 -25.19410 33.03309 39814 ft 432 kts 269°
2026-05-06 17:16 -25.20092 32.96729 39813 ft 432 kts 269°
2026-05-06 17:17 -25.20772 32.90144 39807 ft 432 kts 269°
2026-05-06 17:17 -25.21449 32.83554 39809 ft 431 kts 269°
2026-05-06 17:18 -25.22122 32.76979 39808 ft 431 kts 269°
2026-05-06 17:18 -25.22792 32.70402 39796 ft 431 kts 269°
2026-05-06 17:19 -25.23457 32.63834 39817 ft 431 kts 269°
2026-05-06 17:19 -25.24121 32.57261 39811 ft 430 kts 269°
2026-05-06 17:20 -25.24782 32.50690 39816 ft 430 kts 269°
2026-05-06 17:20 -25.25438 32.44138 39815 ft 429 kts 269°
2026-05-06 17:21 -25.26090 32.37586 39818 ft 429 kts 269°
2026-05-06 17:21 -25.26739 32.31038 39825 ft 429 kts 269°
2026-05-06 17:22 -25.27386 32.24493 39831 ft 428 kts 269°
2026-05-06 17:22 -25.28028 32.17957 39843 ft 428 kts 269°
2026-05-06 17:23 -25.28666 32.11426 39842 ft 428 kts 269°
2026-05-06 17:23 -25.29297 32.04940 39860 ft 427 kts 269°
2026-05-06 17:24 -25.29826 31.99493 39850 ft 425 kts 270°
2026-05-06 17:24 -25.30554 31.91947 39864 ft 425 kts 270°
2026-05-06 17:25 -25.31177 31.85453 39867 ft 425 kts 270°
2026-05-06 17:25 -25.31696 31.80017 39876 ft 425 kts 270°
2026-05-06 17:26 -25.32309 31.73584 39897 ft 423 kts 270°
2026-05-06 17:26 -25.32922 31.67117 39894 ft 423 kts 270°
2026-05-06 17:27 -25.33536 31.60600 39910 ft 423 kts 270°
2026-05-06 17:27 -25.34136 31.54203 39906 ft 423 kts 270°
2026-05-06 17:28 -25.34736 31.47780 39922 ft 421 kts 270°
2026-05-06 17:28 -25.35338 31.41306 39939 ft 420 kts 270°
2026-05-06 17:29 -25.35933 31.34879 39962 ft 420 kts 270°
2026-05-06 17:29 -25.36520 31.28502 39985 ft 420 kts 270°
2026-05-06 17:30 -25.37108 31.22083 39998 ft 420 kts 270°
2026-05-06 17:30 -25.37692 31.15687 39993 ft 417 kts 270°
2026-05-06 17:31 -25.38584 31.09333 39995 ft 422 kts 263°
2026-05-06 17:31 -25.40028 31.03022 39993 ft 424 kts 262°
2026-05-06 17:32 -25.41557 30.96714 39994 ft 425 kts 262°
2026-05-06 17:32 -25.43089 30.90403 40014 ft 425 kts 262°
2026-05-06 17:33 -25.44609 30.84089 40012 ft 425 kts 262°
2026-05-06 17:33 -25.46122 30.77769 40013 ft 425 kts 262°
2026-05-06 17:34 -25.47630 30.71451 40027 ft 425 kts 262°
2026-05-06 17:34 -25.49135 30.65133 40025 ft 425 kts 262°
2026-05-06 17:35 -25.50639 30.58807 40042 ft 425 kts 262°
2026-05-06 17:35 -25.52137 30.52477 40039 ft 425 kts 262°
2026-05-06 17:36 -25.54381 30.43001 40057 ft 424 kts 262°
2026-05-06 17:36 -25.55873 30.36678 40073 ft 425 kts 262°
2026-05-06 17:37 -25.57366 30.30333 40066 ft 426 kts 262°
2026-05-06 17:37 -25.58858 30.23978 40075 ft 426 kts 262°
2026-05-06 17:38 -25.60346 30.17629 40076 ft 426 kts 262°
2026-05-06 17:38 -25.61834 30.11271 40095 ft 426 kts 262°
2026-05-06 17:39 -25.63317 30.04917 39851 ft 427 kts 262°
2026-05-06 17:39 -25.64059 30.01734 39614 ft 427 kts 262°
2026-05-06 17:39 -25.64799 29.98558 39318 ft 425 kts 262°
2026-05-06 17:40 -25.65537 29.95393 38789 ft 423 kts 263°
2026-05-06 17:40 -25.66270 29.92243 38085 ft 422 kts 263°
2026-05-06 17:40 -25.67000 29.89103 37415 ft 421 kts 263°
2026-05-06 17:40 -25.67728 29.85960 36754 ft 420 kts 263°
2026-05-06 17:41 -25.68453 29.82827 36082 ft 419 kts 263°
2026-05-06 17:41 -25.69178 29.79689 35398 ft 420 kts 263°
2026-05-06 17:41 -25.69902 29.76547 34640 ft 421 kts 263°
2026-05-06 17:41 -25.70628 29.73395 33810 ft 424 kts 263°
2026-05-06 17:42 -25.71358 29.70224 32920 ft 425 kts 264°
2026-05-06 17:42 -25.72074 29.67114 32102 ft 426 kts 264°
2026-05-06 17:42 -25.72810 29.63918 31221 ft 428 kts 264°
2026-05-06 17:42 -25.73546 29.60722 30527 ft 427 kts 264°
2026-05-06 17:43 -25.74280 29.57542 29857 ft 424 kts 265°
2026-05-06 17:43 -25.75007 29.54386 29200 ft 420 kts 265°
2026-05-06 17:43 -25.75725 29.51265 28601 ft 416 kts 264°
2026-05-06 17:43 -25.76436 29.48161 27954 ft 412 kts 264°
2026-05-06 17:44 -25.77139 29.45093 27320 ft 408 kts 264°
2026-05-06 17:44 -25.77833 29.42054 26723 ft 404 kts 264°
2026-05-06 17:44 -25.78517 29.39056 26120 ft 401 kts 264°
2026-05-06 17:44 -25.79198 29.36068 25517 ft 397 kts 264°
2026-05-06 17:45 -25.79872 29.33103 24919 ft 394 kts 264°
2026-05-06 17:45 -25.80538 29.30168 24321 ft 391 kts 264°
2026-05-06 17:45 -25.81189 29.27298 23744 ft 388 kts 264°
2026-05-06 17:45 -25.81857 29.24364 23094 ft 384 kts 263°
2026-05-06 17:46 -25.82507 29.21500 22453 ft 381 kts 263°
2026-05-06 17:46 -25.83303 29.18696 21914 ft 380 kts 258°
2026-05-06 17:46 -25.84215 29.15937 21677 ft 383 kts 257°
2026-05-06 17:46 -25.85151 29.13153 21411 ft 386 kts 257°
2026-05-06 17:47 -25.86098 29.10366 21114 ft 385 kts 256°
2026-05-06 17:47 -25.87046 29.07589 20822 ft 384 kts 256°
2026-05-06 17:47 -25.88044 29.04834 20543 ft 388 kts 251°
2026-05-06 17:47 -25.89501 29.02273 20222 ft 398 kts 239°
2026-05-06 17:48 -25.91323 28.99985 19902 ft 401 kts 235°
2026-05-06 17:48 -25.93249 28.97693 19571 ft 400 kts 234°
2026-05-06 17:48 -25.95123 28.95432 19272 ft 396 kts 235°
2026-05-06 17:48 -25.96848 28.93115 18952 ft 391 kts 237°
2026-05-06 17:49 -25.98444 28.90699 18637 ft 386 kts 239°
2026-05-06 17:49 -25.99976 28.88251 18308 ft 384 kts 239°
2026-05-06 17:49 -26.01481 28.85807 17938 ft 382 kts 239°
2026-05-06 17:49 -26.02993 28.83341 17565 ft 381 kts 239°
2026-05-06 17:50 -26.04476 28.80913 17205 ft 379 kts 239°
2026-05-06 17:50 -26.05928 28.78526 16851 ft 377 kts 239°
2026-05-06 17:50 -26.07385 28.76124 16409 ft 371 kts 239°
2026-05-06 17:50 -26.08808 28.73745 15872 ft 370 kts 239°
2026-05-06 17:51 -26.10223 28.71324 15362 ft 374 kts 238°
2026-05-06 17:51 -26.11620 28.68907 14815 ft 368 kts 238°
2026-05-06 17:51 -26.12947 28.66592 14294 ft 340 kts 238°
2026-05-06 17:51 -26.14163 28.64448 13767 ft 315 kts 238°
2026-05-06 17:52 -26.15304 28.62428 13190 ft 305 kts 237°
2026-05-06 17:52 -26.16415 28.60465 12623 ft 291 kts 237°
2026-05-06 17:52 -26.17465 28.58604 12041 ft 278 kts 237°
2026-05-06 17:52 -26.18497 28.56799 11512 ft 275 kts 239°
2026-05-06 17:53 -26.19528 28.55052 10985 ft 265 kts 238°
2026-05-06 17:53 -26.20512 28.53363 10462 ft 253 kts 239°
2026-05-06 17:53 -26.21434 28.51762 10161 ft 237 kts 238°
2026-05-06 17:53 -26.22313 28.50234 10102 ft 232 kts 238°
2026-05-06 17:54 -26.23184 28.48723 10103 ft 232 kts 238°
2026-05-06 17:54 -26.24048 28.47211 10102 ft 231 kts 239°
2026-05-06 17:54 -26.24914 28.45703 10101 ft 231 kts 239°
2026-05-06 17:54 -26.25780 28.44204 10033 ft 228 kts 238°
2026-05-06 17:55 -26.26629 28.42727 9665 ft 226 kts 238°
2026-05-06 17:55 -26.27481 28.41242 9241 ft 227 kts 238°
2026-05-06 17:55 -26.28332 28.39759 9121 ft 228 kts 238°
2026-05-06 17:55 -26.29186 28.38263 9112 ft 229 kts 238°
2026-05-06 17:56 -26.30042 28.36765 9115 ft 229 kts 238°
2026-05-06 17:56 -26.30903 28.35275 9094 ft 229 kts 238°
2026-05-06 17:56 -26.31764 28.33785 9116 ft 228 kts 239°
2026-05-06 17:56 -26.32594 28.32277 9115 ft 228 kts 242°
2026-05-06 17:57 -26.33287 28.30690 9096 ft 227 kts 248°
2026-05-06 17:57 -26.33889 28.29098 9097 ft 218 kts 249°
2026-05-06 17:57 -26.34457 28.27544 9109 ft 216 kts 248°
2026-05-06 17:57 -26.35018 28.25997 9087 ft 216 kts 248°
2026-05-06 17:58 -26.35586 28.24430 8708 ft 219 kts 249°
2026-05-06 17:58 -26.35796 28.22787 8384 ft 215 kts 278°
2026-05-06 17:58 -26.35164 28.21298 8089 ft 217 kts 306°
2026-05-06 17:58 -26.33897 28.20394 8007 ft 216 kts 335°
2026-05-06 17:59 -26.32473 28.20048 8021 ft 203 kts 343°
2026-05-06 17:59 -26.31122 28.19847 8008 ft 190 kts 345°
2026-05-06 17:59 -26.29852 28.19680 8005 ft 175 kts 343°
2026-05-06 17:59 -26.28669 28.19545 8009 ft 169 kts 344°
2026-05-06 18:00 -26.27474 28.19541 8009 ft 175 kts 355°
2026-05-06 18:00 -26.26269 28.19798 7989 ft 178 kts
2026-05-06 18:00 -26.25075 28.20179 7779 ft 178 kts
2026-05-06 18:00 -26.23893 28.20552 7534 ft 175 kts
2026-05-06 18:01 -26.22741 28.20909 7308 ft 169 kts
2026-05-06 18:01 -26.21636 28.21255 7074 ft 160 kts
2026-05-06 18:01 -26.20584 28.21581 6887 ft 155 kts
2026-05-06 18:01 -26.19548 28.21902 6681 ft 155 kts
2026-05-06 18:02 -26.18510 28.22233 6469 ft 154 kts
2026-05-06 18:02 -26.17477 28.22554 6235 ft 153 kts
2026-05-06 18:02 -26.16455 28.22871 6004 ft 152 kts 11°
2026-05-06 18:02 -26.15447 28.23186 5788 ft 149 kts
2026-05-06 18:03 -26.14450 28.23497 5609 ft 148 kts 11°
2026-05-06 18:03 -26.13506 28.23775 5561 ft 127 kts 15°
2026-05-06 18:03 -26.12919 28.23965 5552 ft 54 kts 14°
2026-05-06 18:03 -26.12724 28.23989 5552 ft 16 kts 352°
2026-05-06 18:04 -26.12631 28.23971 5551 ft 9 kts 348°
2026-05-06 18:04 -26.12591 28.23962 5551 ft 0 kts 348°
2026-05-06 18:04 -26.12585 28.23960 5551 ft 3 kts 348°
2026-05-06 18:04 -26.12566 28.23948 5553 ft 3 kts 318°
2026-05-06 18:05 -26.12556 28.23929 5552 ft 3 kts 298°
2026-05-06 18:05 -26.12552 28.23918 5552 ft 0 kts 292°
2026-05-06 18:06 -26.12551 28.23902 5552 ft 3 kts 261°
2026-05-06 18:06 -26.12564 28.23887 5554 ft 6 kts 223°
2026-05-06 18:06 -26.12619 28.23860 5554 ft 11 kts 195°
2026-05-06 18:06 -26.12714 28.23830 5555 ft 15 kts 195°
2026-05-06 18:07 -26.12815 28.23799 5554 ft 16 kts 194°
2026-05-06 18:07 -26.12924 28.23766 5553 ft 17 kts 195°
2026-05-06 18:07 -26.13036 28.23730 5554 ft 18 kts 195°
2026-05-06 18:07 -26.13165 28.23691 5554 ft 21 kts 195°
2026-05-06 18:08 -26.13309 28.23646 5556 ft 22 kts 195°
2026-05-06 18:08 -26.13453 28.23602 5559 ft 21 kts 195°
2026-05-06 18:08 -26.13590 28.23559 5561 ft 19 kts 195°
2026-05-06 18:08 -26.13713 28.23520 5564 ft 16 kts 195°
2026-05-06 18:09 -26.13776 28.23492 5563 ft 8 kts 217°
2026-05-06 18:09 -26.13782 28.23420 5558 ft 14 kts 289°
2026-05-06 18:09 -26.13719 28.23346 5558 ft 14 kts 347°
2026-05-06 18:09 -26.13623 28.23350 5556 ft 14 kts
2026-05-06 18:10 -26.13538 28.23360 5555 ft 12 kts
2026-05-06 18:10 -26.13448 28.23372 5554 ft 13 kts
2026-05-06 18:10 -26.13352 28.23388 5556 ft 15 kts
2026-05-06 18:10 -26.13275 28.23397 5555 ft 0 kts
2026-05-06 18:11 -26.13258 28.23397 5557 ft 4 kts 353°
2026-05-06 18:12 -26.13241 28.23380 5557 ft 4 kts 307°
2026-05-06 18:12 -26.13230 28.23345 5557 ft 5 kts 278°
2026-05-06 18:12 -26.13229 28.23331 5554 ft 1 kts 276°
2026-05-06 18:12 -26.13228 28.23325 5553 ft 0 kts 276°
2026-05-06 18:13 -26.13228 28.23324 5558 ft 1 kts 276°
2026-05-06 18:13 -26.13228 28.23322 5558 ft 0 kts 276°
2026-05-06 18:13 -26.13228 28.23321 5553 ft 0 kts 276°
2026-05-06 18:13 -26.13228 28.23318 5553 ft 0 kts 276°
2026-05-06 18:14 -26.13228 28.23317 5553 ft 0 kts 276°
2026-05-06 18:15 -26.13227 28.23317 5553 ft 0 kts 276°